STARLINK-11266, 60732

Orbit data source: Space-Track

STARLINK-11266, 60732 is a payload satellite owned by SpaceX/Seattle (US) in LEO that was launched on Wed, 28 Aug 2024 UTC via an FALCON 9 launch vehicle from the Air Force Eastern Test Range (AFETR). Payload-class satellites include a variety of spacecraft equipped with specific instruments for various scientific and technological missions. These include communications satellites like Starlink; space stations such as the ISS; scientific satellites like the Hubble; Earth observation satellites from companies like Planet Labs, Umbra, and HawkEye 360; GPS; miniature CubeSats for education and research; and military/defense satellites.

Loading next visibility...
Identifier
60732, 2024-152N
Orbit
LEO
Last TLE update
12 hours ago
Origin
Manufacturer
SpaceX/Seattle
Mission
Operational Commercial Communications
Bus & Motor
STARLINK V2M, Unknown motor
Mass
730 kg wet, ~700 kg dry
Launch date (UTC)
2024-08-28 (10 months ago)
Launch vehicle
FALCON 9
Launch site
Air Force Eastern Test Range (AFETR)
Object type
Payload
Rocket body
Debris
Shape & HBR
Box + 2 Pan, 29 m
Radar Cross Section
36.964 m², Large (>1 m²)

Expand to show TLE details & history

TLE from 12 hours ago
0 STARLINK-11266
1 60732U 24152N   25189.85929986 -.00001404  00000-0 -67336-5 0  9994
2 60732  53.1594 237.8773 0001304 101.2821 258.8343 15.69699416 50540
Epoch: 2025-07-08T20:37Z
TLE epoch observation values (Epoch: 2025-07-08T20:37:23.507Z)
Latitude
-0.00008°
Longitude
1.48105°
Altitude
360.842 km
Speed
7.694 km/s
True Right ascension
15h 51m 30s
True Declination
0° 00' 00"
Sunlit
Object was in full shadow at epoch
Visualization orbit readout
Latitude
-14.70189°
Longitude
-12.28687°
Altitude
364.176 km
Speed
7.691 km/s
Apparent Right ascension
12h 28m 37s
Apparent Declination
-35° 18' 36"
Sunlit
Object is in full shadow
Visualization observer readout
Local Sidereal Time
20:55:53
Azimuth
258.787° W
Elevation
-48.244°
Doppler factor
1
Orbital elements
Apogee altitude
360.896 km
Perigee altitude
359.139 km
Semi-major axis
6,738.155 km
Eccentricity
0.00013
Inclination
53.1594°
RAAN
237.8773°
Arg. of periapsis
101.2821°
True anomaly
Unknown
Mean anomaly
258.8343°
Eccentric anomaly
Unknown
Mean motion
3.92402 °/min
Orbital period
91.74 mins
BSTAR
-0.0000067336
Loading maneuver chart data...
Loading SW <> Apogee altitude chart data...
Loading historical data...
Loading historical data...
Loading historical data...
Loading historical data...
Loading historical data...
Loading historical data...
Loading historical data...

STARLINK-11266 Visibility forecast

Observer location: undefined°, undefined°

Span
Click to sort rows by Start time (UTC) header in descending order
Start Az.
Max El. time (UTC)
Max El. Az.
Max El.
End time (UTC)
End Az.
5 mins2025-07-09 12:23:11.029Z325.924° NNW2025-07-09 12:25:11.029Z20.603° NNE33.71°2025-07-09 12:28:11.029Z109.399° ESE
4 mins2025-07-10 06:28:11.029Z276.996° WNW2025-07-10 06:30:11.029Z346.741° N25.512°2025-07-10 06:32:11.029Z30.053° NE
|